Year,Month,Day,Hour,Minute,Value (Times are PST for temperature in C)
2015,07,08,00,00,18.70
2015,07,08,00,01,18.70
2015,07,08,00,02,18.70
2015,07,08,00,03,18.70
2015,07,08,00,04,18.70
2015,07,08,00,05,18.70
2015,07,08,00,06,18.60
2015,07,08,00,07,18.60
2015,07,08,00,08,18.60
2015,07,08,00,09,18.60
2015,07,08,00,10,18.50
2015,07,08,00,11,18.50
2015,07,08,00,12,18.50
2015,07,08,00,13,18.50
2015,07,08,00,14,18.40
2015,07,08,00,15,18.40
2015,07,08,00,16,18.40
2015,07,08,00,17,18.40
2015,07,08,00,18,18.30
2015,07,08,00,19,18.30
2015,07,08,00,20,18.30
2015,07,08,00,21,18.30
2015,07,08,00,22,18.20
2015,07,08,00,23,18.20
2015,07,08,00,24,18.20
2015,07,08,00,25,18.20
2015,07,08,00,26,18.20
2015,07,08,00,27,18.20
2015,07,08,00,28,18.20
2015,07,08,00,29,18.20
2015,07,08,00,30,18.20
2015,07,08,00,31,18.10
2015,07,08,00,32,18.10
2015,07,08,00,33,18.10
2015,07,08,00,34,18.10
2015,07,08,00,35,18.10
2015,07,08,00,36,18.00
2015,07,08,00,37,17.90
2015,07,08,00,38,17.90
2015,07,08,00,39,17.90
2015,07,08,00,40,17.90
2015,07,08,00,41,17.90
2015,07,08,00,42,17.90
2015,07,08,00,43,17.90
2015,07,08,00,44,17.90
2015,07,08,00,45,17.90
2015,07,08,00,46,17.90
2015,07,08,00,47,17.90
2015,07,08,00,48,17.80
2015,07,08,00,49,17.80
2015,07,08,00,50,17.80
2015,07,08,00,51,17.80
2015,07,08,00,52,17.80
2015,07,08,00,53,17.80
2015,07,08,00,54,17.80
2015,07,08,00,55,17.80
2015,07,08,00,56,17.80
2015,07,08,00,57,17.80
2015,07,08,00,58,17.80
2015,07,08,00,59,17.80
2015,07,08,01,00,17.80
2015,07,08,01,01,17.80
2015,07,08,01,02,17.70
2015,07,08,01,03,17.70
2015,07,08,01,04,17.70
2015,07,08,01,05,17.70
2015,07,08,01,06,17.60
2015,07,08,01,07,17.60
2015,07,08,01,08,17.60
2015,07,08,01,09,17.60
2015,07,08,01,10,17.60
2015,07,08,01,11,17.50
2015,07,08,01,12,17.50
2015,07,08,01,13,17.50
2015,07,08,01,14,17.50
2015,07,08,01,15,17.50
2015,07,08,01,16,17.40
2015,07,08,01,17,17.40
2015,07,08,01,18,17.40
2015,07,08,01,19,17.40
2015,07,08,01,20,17.30
2015,07,08,01,21,17.30
2015,07,08,01,22,17.30
2015,07,08,01,23,17.30
2015,07,08,01,24,17.30
2015,07,08,01,25,17.30
2015,07,08,01,26,17.30
2015,07,08,01,27,17.30
2015,07,08,01,28,17.30
2015,07,08,01,29,17.30
2015,07,08,01,30,17.30
2015,07,08,01,31,17.20
2015,07,08,01,32,17.20
2015,07,08,01,33,17.20
2015,07,08,01,34,17.20
2015,07,08,01,35,17.20
2015,07,08,01,36,17.10
2015,07,08,01,37,17.10
2015,07,08,01,38,17.10
2015,07,08,01,39,17.10
2015,07,08,01,40,17.10
2015,07,08,01,41,17.10
2015,07,08,01,42,17.00
2015,07,08,01,43,17.00
2015,07,08,01,44,17.00
2015,07,08,01,45,17.00
2015,07,08,01,46,17.00
2015,07,08,01,47,17.00
2015,07,08,01,48,17.00
2015,07,08,01,49,17.00
2015,07,08,01,50,17.00
2015,07,08,01,51,17.00
2015,07,08,01,52,17.00
2015,07,08,01,53,17.00
2015,07,08,01,54,17.00
2015,07,08,01,55,17.00
2015,07,08,01,56,17.00
2015,07,08,01,57,16.90
2015,07,08,01,58,16.90
2015,07,08,01,59,16.90
2015,07,08,02,00,16.90
2015,07,08,02,01,16.90
2015,07,08,02,02,16.90
2015,07,08,02,03,16.90
2015,07,08,02,04,16.90
2015,07,08,02,05,16.90
2015,07,08,02,06,16.90
2015,07,08,02,07,16.90
2015,07,08,02,08,17.00
2015,07,08,02,09,17.00
2015,07,08,02,10,17.00
2015,07,08,02,11,17.00
2015,07,08,02,12,17.00
2015,07,08,02,13,17.00
2015,07,08,02,14,17.00
2015,07,08,02,15,17.00
2015,07,08,02,16,17.00
2015,07,08,02,17,17.00
2015,07,08,02,18,17.00
2015,07,08,02,19,17.00
2015,07,08,02,20,17.00
2015,07,08,02,21,17.00
2015,07,08,02,22,16.90
2015,07,08,02,23,16.90
2015,07,08,02,24,16.90
2015,07,08,02,25,16.80
2015,07,08,02,26,16.80
2015,07,08,02,27,16.70
2015,07,08,02,28,16.70
2015,07,08,02,29,16.70
2015,07,08,02,30,16.70
2015,07,08,02,31,16.70
2015,07,08,02,32,16.70
2015,07,08,02,33,16.70
2015,07,08,02,34,16.60
2015,07,08,02,35,16.60
2015,07,08,02,36,16.50
2015,07,08,02,37,16.40
2015,07,08,02,38,16.40
2015,07,08,02,39,16.40
2015,07,08,02,40,16.40
2015,07,08,02,41,16.40
2015,07,08,02,42,16.30
2015,07,08,02,43,16.30
2015,07,08,02,44,16.30
2015,07,08,02,45,16.30
2015,07,08,02,46,16.20
2015,07,08,02,47,16.20
2015,07,08,02,48,16.20
2015,07,08,02,49,16.20
2015,07,08,02,50,16.20
2015,07,08,02,51,16.10
2015,07,08,02,52,16.10
2015,07,08,02,53,16.10
2015,07,08,02,54,16.10
2015,07,08,02,55,16.10
2015,07,08,02,56,16.10
2015,07,08,02,57,16.10
2015,07,08,02,58,16.10
2015,07,08,02,59,16.10
2015,07,08,03,00,16.10
2015,07,08,03,01,16.00
2015,07,08,03,02,15.90
2015,07,08,03,03,15.90
2015,07,08,03,04,15.90
2015,07,08,03,05,15.90
2015,07,08,03,06,15.90
2015,07,08,03,07,15.80
2015,07,08,03,08,15.80
2015,07,08,03,09,15.80
2015,07,08,03,10,15.80
2015,07,08,03,11,15.80
2015,07,08,03,12,15.80
2015,07,08,03,13,15.80
2015,07,08,03,14,15.80
2015,07,08,03,15,15.80
2015,07,08,03,16,15.70
2015,07,08,03,17,15.70
2015,07,08,03,18,15.70
2015,07,08,03,19,15.70
2015,07,08,03,20,15.70
2015,07,08,03,21,15.60
2015,07,08,03,22,15.60
2015,07,08,03,23,15.60
2015,07,08,03,24,15.60
2015,07,08,03,25,15.60
2015,07,08,03,26,15.60
2015,07,08,03,27,15.60
2015,07,08,03,28,15.60
2015,07,08,03,29,15.60
2015,07,08,03,30,15.60
2015,07,08,03,31,15.60
2015,07,08,03,32,15.50
2015,07,08,03,33,15.50
2015,07,08,03,34,15.50
2015,07,08,03,35,15.50
2015,07,08,03,36,15.50
2015,07,08,03,37,15.50
2015,07,08,03,38,15.50
2015,07,08,03,39,15.50
2015,07,08,03,40,15.50
2015,07,08,03,41,15.50
2015,07,08,03,42,15.50
2015,07,08,03,43,15.40
2015,07,08,03,44,15.40
2015,07,08,03,45,15.40
2015,07,08,03,46,15.40
2015,07,08,03,47,15.40
2015,07,08,03,48,15.40
2015,07,08,03,49,15.30
2015,07,08,03,50,15.30
2015,07,08,03,51,15.30
2015,07,08,03,52,15.30
2015,07,08,03,53,15.30
2015,07,08,03,54,15.30
2015,07,08,03,55,15.30
2015,07,08,03,56,15.30
2015,07,08,03,57,15.30
2015,07,08,03,58,15.30
2015,07,08,03,59,15.30
2015,07,08,04,00,15.20
2015,07,08,04,01,15.20
2015,07,08,04,02,15.20
2015,07,08,04,03,15.20
2015,07,08,04,04,15.20
2015,07,08,04,05,15.20
2015,07,08,04,06,15.20
2015,07,08,04,07,15.20
2015,07,08,04,08,15.10
2015,07,08,04,09,15.10
2015,07,08,04,10,15.10
2015,07,08,04,11,15.10
2015,07,08,04,12,15.10
2015,07,08,04,13,15.00
2015,07,08,04,14,15.00
2015,07,08,04,15,15.00
2015,07,08,04,16,15.00
2015,07,08,04,17,15.00
2015,07,08,04,18,15.00
2015,07,08,04,19,15.00
2015,07,08,04,20,15.00
2015,07,08,04,21,15.00
2015,07,08,04,22,15.00
2015,07,08,04,23,15.00
2015,07,08,04,24,15.00
2015,07,08,04,25,15.00
2015,07,08,04,26,15.00
2015,07,08,04,27,15.00
2015,07,08,04,28,15.00
2015,07,08,04,29,15.00
2015,07,08,04,30,15.00
2015,07,08,04,31,15.00
2015,07,08,04,32,15.00
2015,07,08,04,33,14.90
2015,07,08,04,34,14.90
2015,07,08,04,35,14.90
2015,07,08,04,36,14.90
2015,07,08,04,37,14.90
2015,07,08,04,38,14.90
2015,07,08,04,39,14.80
2015,07,08,04,40,14.80
2015,07,08,04,41,14.90
2015,07,08,04,42,14.90
2015,07,08,04,43,14.90
2015,07,08,04,44,14.90
2015,07,08,04,45,14.90
2015,07,08,04,46,14.90
2015,07,08,04,47,14.90
2015,07,08,04,48,14.80
2015,07,08,04,49,14.80
2015,07,08,04,50,14.80
2015,07,08,04,51,14.80
2015,07,08,04,52,14.80
2015,07,08,04,53,14.80
2015,07,08,04,54,14.80
2015,07,08,04,55,14.80
2015,07,08,04,56,14.80
2015,07,08,04,57,14.80
2015,07,08,04,58,14.80
2015,07,08,04,59,14.80
2015,07,08,05,00,14.80
2015,07,08,05,01,14.80
2015,07,08,05,02,14.80
2015,07,08,05,03,14.80
2015,07,08,05,04,14.80
2015,07,08,05,05,14.80
2015,07,08,05,06,14.80
2015,07,08,05,07,14.80
2015,07,08,05,08,14.80
2015,07,08,05,09,14.80
2015,07,08,05,10,14.80
2015,07,08,05,11,14.70
2015,07,08,05,12,14.70
2015,07,08,05,13,14.70
2015,07,08,05,14,14.70
2015,07,08,05,15,14.70
2015,07,08,05,16,14.60
2015,07,08,05,17,14.60
2015,07,08,05,18,14.60
2015,07,08,05,19,14.60
2015,07,08,05,20,14.70
2015,07,08,05,21,14.70
2015,07,08,05,22,14.70
2015,07,08,05,23,14.60
2015,07,08,05,24,14.60
2015,07,08,05,25,14.60
2015,07,08,05,26,14.60
2015,07,08,05,27,14.60
2015,07,08,05,28,14.60
2015,07,08,05,29,14.60
2015,07,08,05,30,14.60
2015,07,08,05,31,14.60
2015,07,08,05,32,14.60
2015,07,08,05,33,14.60
2015,07,08,05,34,14.60
2015,07,08,05,35,14.60
2015,07,08,05,36,14.50
2015,07,08,05,37,14.50
2015,07,08,05,38,14.50
2015,07,08,05,39,14.50
2015,07,08,05,40,14.50
2015,07,08,05,41,14.50
2015,07,08,05,42,14.50
2015,07,08,05,43,14.50
2015,07,08,05,44,14.50
2015,07,08,05,45,14.50
2015,07,08,05,46,14.50
2015,07,08,05,47,14.50
2015,07,08,05,48,14.50
2015,07,08,05,49,14.50
2015,07,08,05,50,14.50
2015,07,08,05,51,14.50
2015,07,08,05,52,14.50
2015,07,08,05,53,14.50
2015,07,08,05,54,14.50
2015,07,08,05,55,14.50
2015,07,08,05,56,14.50
2015,07,08,05,57,14.50
2015,07,08,05,58,14.50
2015,07,08,05,59,14.50
2015,07,08,06,00,14.50
2015,07,08,06,01,14.60
2015,07,08,06,02,14.60
2015,07,08,06,03,14.60
2015,07,08,06,04,14.60
2015,07,08,06,05,14.60
2015,07,08,06,06,14.70
2015,07,08,06,07,14.70
2015,07,08,06,08,14.80
2015,07,08,06,09,14.80
2015,07,08,06,10,14.80
2015,07,08,06,11,14.80
2015,07,08,06,12,14.80
2015,07,08,06,13,14.80
2015,07,08,06,14,14.80
2015,07,08,06,15,14.80
2015,07,08,06,16,14.80
2015,07,08,06,17,14.80
2015,07,08,06,18,14.80
2015,07,08,06,19,14.80
2015,07,08,06,20,14.80
2015,07,08,06,21,14.80
2015,07,08,06,22,14.80
2015,07,08,06,23,14.80
2015,07,08,06,24,14.80
2015,07,08,06,25,14.80
2015,07,08,06,26,14.80
2015,07,08,06,27,14.80
2015,07,08,06,28,14.80
2015,07,08,06,29,14.90
2015,07,08,06,30,14.90
2015,07,08,06,31,14.90
2015,07,08,06,32,14.90
2015,07,08,06,33,14.90
2015,07,08,06,34,15.00
2015,07,08,06,35,15.00
2015,07,08,06,36,15.00
2015,07,08,06,37,15.00
2015,07,08,06,38,15.10
2015,07,08,06,39,15.10
2015,07,08,06,40,15.10
2015,07,08,06,41,15.10
2015,07,08,06,42,15.20
2015,07,08,06,43,15.20
2015,07,08,06,44,15.20
2015,07,08,06,45,15.20
2015,07,08,06,46,15.20
2015,07,08,06,47,15.20
2015,07,08,06,48,15.30
2015,07,08,06,49,15.30
2015,07,08,06,50,15.30
2015,07,08,06,51,15.30
2015,07,08,06,52,15.30
2015,07,08,06,53,15.30
2015,07,08,06,54,15.30
2015,07,08,06,55,15.30
2015,07,08,06,56,15.30
2015,07,08,06,57,15.30
2015,07,08,06,58,15.30
2015,07,08,06,59,15.30
2015,07,08,07,00,15.40
2015,07,08,07,01,15.40
2015,07,08,07,02,15.50
2015,07,08,07,03,15.50
2015,07,08,07,04,15.50
2015,07,08,07,05,15.40
2015,07,08,07,06,15.40
2015,07,08,07,07,15.40
2015,07,08,07,08,15.40
2015,07,08,07,09,15.50
2015,07,08,07,10,15.50
2015,07,08,07,11,15.50
2015,07,08,07,12,15.50
2015,07,08,07,13,15.50
2015,07,08,07,14,15.60
2015,07,08,07,15,15.60
2015,07,08,07,16,15.60
2015,07,08,07,17,15.60
2015,07,08,07,18,15.70
2015,07,08,07,19,15.70
2015,07,08,07,20,15.80
2015,07,08,07,21,15.80
2015,07,08,07,22,15.80
2015,07,08,07,23,15.80
2015,07,08,07,24,15.80
2015,07,08,07,25,15.80
2015,07,08,07,26,15.80
2015,07,08,07,27,15.80
2015,07,08,07,28,15.90
2015,07,08,07,29,15.90
2015,07,08,07,30,15.90
2015,07,08,07,31,15.90
2015,07,08,07,32,16.00
2015,07,08,07,33,16.00
2015,07,08,07,34,16.10
2015,07,08,07,35,16.10
2015,07,08,07,36,15.90
2015,07,08,07,37,15.90
2015,07,08,07,38,15.90
2015,07,08,07,39,16.00
2015,07,08,07,40,16.10
2015,07,08,07,41,16.10
2015,07,08,07,42,16.10
2015,07,08,07,43,16.10
2015,07,08,07,44,16.20
2015,07,08,07,45,16.20
2015,07,08,07,46,16.30
2015,07,08,07,47,16.30
2015,07,08,07,48,16.30
2015,07,08,07,49,16.30
2015,07,08,07,50,16.30
2015,07,08,07,51,16.30
2015,07,08,07,52,16.30
2015,07,08,07,53,16.40
2015,07,08,07,54,16.40
2015,07,08,07,55,16.40
2015,07,08,07,56,16.40
2015,07,08,07,57,16.40
2015,07,08,07,58,16.40
2015,07,08,07,59,16.40
2015,07,08,08,00,16.40
2015,07,08,08,01,16.50
2015,07,08,08,02,16.60
2015,07,08,08,03,16.70
2015,07,08,08,04,16.70
2015,07,08,08,05,16.70
2015,07,08,08,06,16.80
2015,07,08,08,07,16.80
2015,07,08,08,08,16.80
2015,07,08,08,09,16.80
2015,07,08,08,10,16.90
2015,07,08,08,11,16.90
2015,07,08,08,12,16.90
2015,07,08,08,13,16.90
2015,07,08,08,14,17.00
2015,07,08,08,15,17.00
2015,07,08,08,16,17.00
2015,07,08,08,17,17.10
2015,07,08,08,18,17.20
2015,07,08,08,19,17.30
2015,07,08,08,20,17.30
2015,07,08,08,21,17.30
2015,07,08,08,22,17.40
2015,07,08,08,23,17.50
2015,07,08,08,24,17.60
2015,07,08,08,25,17.60
2015,07,08,08,26,17.70
2015,07,08,08,27,17.70
2015,07,08,08,28,17.70
2015,07,08,08,29,17.70
2015,07,08,08,30,17.80
2015,07,08,08,31,17.80
2015,07,08,08,32,17.80
2015,07,08,08,33,17.90
2015,07,08,08,34,17.90
2015,07,08,08,35,17.90
2015,07,08,08,36,18.00
2015,07,08,08,37,18.10
2015,07,08,08,38,18.10
2015,07,08,08,39,18.20
2015,07,08,08,40,18.20
2015,07,08,08,41,18.20
2015,07,08,08,42,18.30
2015,07,08,08,43,18.30
2015,07,08,08,44,18.30
2015,07,08,08,45,18.30
2015,07,08,08,46,18.30
2015,07,08,08,47,18.30
2015,07,08,08,48,18.30
2015,07,08,08,49,18.30
2015,07,08,08,50,18.30
2015,07,08,08,51,18.30
2015,07,08,08,52,18.30
2015,07,08,08,53,18.40
2015,07,08,08,54,18.40
2015,07,08,08,55,18.50
2015,07,08,08,56,18.60
2015,07,08,08,57,18.60
2015,07,08,08,58,18.70
2015,07,08,08,59,18.70
2015,07,08,09,00,18.70
2015,07,08,09,01,18.80
2015,07,08,09,02,18.80
2015,07,08,09,03,18.80
2015,07,08,09,04,18.80
2015,07,08,09,05,18.90
2015,07,08,09,06,18.90
2015,07,08,09,07,18.90
2015,07,08,09,08,19.10
2015,07,08,09,09,19.10
2015,07,08,09,10,19.20
2015,07,08,09,11,19.30
2015,07,08,09,12,19.40
2015,07,08,09,13,19.50
2015,07,08,09,14,19.50
2015,07,08,09,15,19.60
2015,07,08,09,16,19.60
2015,07,08,09,17,19.70
2015,07,08,09,18,19.70
2015,07,08,09,19,19.70
2015,07,08,09,20,19.80
2015,07,08,09,21,19.80
2015,07,08,09,22,19.80
2015,07,08,09,23,19.80
2015,07,08,09,24,19.90
2015,07,08,09,25,19.90
2015,07,08,09,26,19.90
2015,07,08,09,27,19.90
2015,07,08,09,28,19.90
2015,07,08,09,29,19.90
2015,07,08,09,30,19.90
2015,07,08,09,31,19.80
2015,07,08,09,32,19.80
2015,07,08,09,33,19.80
2015,07,08,09,34,19.70
2015,07,08,09,35,19.70
2015,07,08,09,36,19.70
2015,07,08,09,37,19.80
2015,07,08,09,38,19.80
2015,07,08,09,39,19.80
2015,07,08,09,40,19.80
2015,07,08,09,41,19.80
2015,07,08,09,42,19.80
2015,07,08,09,43,19.80
2015,07,08,09,44,19.90
2015,07,08,09,45,19.90
2015,07,08,09,46,19.90
2015,07,08,09,47,19.90
2015,07,08,09,48,19.90
2015,07,08,09,49,19.90
2015,07,08,09,50,19.90
2015,07,08,09,51,19.90
2015,07,08,09,52,19.90
2015,07,08,09,53,19.90
2015,07,08,09,54,20.00
2015,07,08,09,55,20.10
2015,07,08,09,56,20.10
2015,07,08,09,57,20.20
2015,07,08,09,58,20.20
2015,07,08,09,59,20.20
2015,07,08,10,00,20.20
2015,07,08,10,01,20.20
2015,07,08,10,02,20.20
2015,07,08,10,03,20.20
2015,07,08,10,04,20.20
2015,07,08,10,05,20.20
2015,07,08,10,06,20.30
2015,07,08,10,07,20.40
2015,07,08,10,08,20.40
2015,07,08,10,09,20.50
2015,07,08,10,10,20.60
2015,07,08,10,11,20.60
2015,07,08,10,12,20.60
2015,07,08,10,13,20.70
2015,07,08,10,14,20.70
2015,07,08,10,15,20.70
2015,07,08,10,16,20.70
2015,07,08,10,17,20.80
2015,07,08,10,18,20.80
2015,07,08,10,19,20.90
2015,07,08,10,20,20.90
2015,07,08,10,21,21.00
2015,07,08,10,22,21.00
2015,07,08,10,23,21.10
2015,07,08,10,24,21.10
2015,07,08,10,25,21.20
2015,07,08,10,26,21.30
2015,07,08,10,27,21.30
2015,07,08,10,28,21.30
2015,07,08,10,29,21.30
2015,07,08,10,30,21.30
2015,07,08,10,31,21.30
2015,07,08,10,32,21.20
2015,07,08,10,33,21.10
2015,07,08,10,34,21.10
2015,07,08,10,35,21.00
2015,07,08,10,36,21.00
2015,07,08,10,37,21.00
2015,07,08,10,38,21.00
2015,07,08,10,39,21.00
2015,07,08,10,40,20.90
2015,07,08,10,41,20.90
2015,07,08,10,42,20.80
2015,07,08,10,43,20.80
2015,07,08,10,44,20.60
2015,07,08,10,45,20.50
2015,07,08,10,46,20.50
2015,07,08,10,47,20.40
2015,07,08,10,48,20.50
2015,07,08,10,49,20.60
2015,07,08,10,50,20.60
2015,07,08,10,51,20.60
2015,07,08,10,52,20.50
2015,07,08,10,53,20.40
2015,07,08,10,54,20.30
2015,07,08,10,55,20.30
2015,07,08,10,56,20.20
2015,07,08,10,57,20.20
2015,07,08,10,58,20.10
2015,07,08,10,59,20.00
2015,07,08,11,00,19.90
2015,07,08,11,01,19.90
2015,07,08,11,02,19.90
2015,07,08,11,03,19.90
2015,07,08,11,04,19.90
2015,07,08,11,05,20.00
2015,07,08,11,06,20.10
2015,07,08,11,07,20.00
2015,07,08,11,08,19.90
2015,07,08,11,09,19.90
2015,07,08,11,10,20.00
2015,07,08,11,11,20.10
2015,07,08,11,12,20.10
2015,07,08,11,13,20.10
2015,07,08,11,14,20.30
2015,07,08,11,15,20.50
2015,07,08,11,16,20.60
2015,07,08,11,17,20.70
2015,07,08,11,18,20.70
2015,07,08,11,19,20.60
2015,07,08,11,20,20.50
2015,07,08,11,21,20.50
2015,07,08,11,22,20.60
2015,07,08,11,23,20.50
2015,07,08,11,24,20.40
2015,07,08,11,25,20.40
2015,07,08,11,26,20.40
2015,07,08,11,27,20.40
2015,07,08,11,28,20.50
2015,07,08,11,29,20.60
2015,07,08,11,30,20.60
2015,07,08,11,31,20.60
2015,07,08,11,32,20.70
2015,07,08,11,33,20.70
2015,07,08,11,34,20.80
2015,07,08,11,35,20.90
2015,07,08,11,36,21.00
2015,07,08,11,37,21.00
2015,07,08,11,38,21.10
2015,07,08,11,39,21.10
2015,07,08,11,40,21.00
2015,07,08,11,41,21.00
2015,07,08,11,42,21.00
2015,07,08,11,43,21.00
2015,07,08,11,44,21.10
2015,07,08,11,45,21.20
2015,07,08,11,46,21.20
2015,07,08,11,47,21.30
2015,07,08,11,48,21.40
2015,07,08,11,49,21.50
2015,07,08,11,50,21.60
2015,07,08,11,51,21.50
2015,07,08,11,52,21.40
2015,07,08,11,53,21.40
2015,07,08,11,54,21.40
2015,07,08,11,55,21.50
2015,07,08,11,56,21.60
2015,07,08,11,57,21.60
2015,07,08,11,58,21.70
2015,07,08,11,59,21.80
2015,07,08,12,00,21.80
2015,07,08,12,01,21.70
2015,07,08,12,02,21.70
2015,07,08,12,03,21.80
2015,07,08,12,04,21.80
2015,07,08,12,05,21.90
2015,07,08,12,06,21.90
2015,07,08,12,07,21.90
2015,07,08,12,08,21.70
2015,07,08,12,09,21.60
2015,07,08,12,10,21.60
2015,07,08,12,11,21.50
2015,07,08,12,12,21.40
2015,07,08,12,13,21.30
2015,07,08,12,14,21.30
2015,07,08,12,15,21.20
2015,07,08,12,16,21.20
2015,07,08,12,17,21.10
2015,07,08,12,18,21.00
2015,07,08,12,19,21.00
2015,07,08,12,20,21.00
2015,07,08,12,21,21.00
2015,07,08,12,22,20.90
2015,07,08,12,23,20.90
2015,07,08,12,24,21.00
2015,07,08,12,25,21.20
2015,07,08,12,26,21.40
2015,07,08,12,27,21.40
2015,07,08,12,28,21.40
2015,07,08,12,29,21.30
2015,07,08,12,30,21.30
2015,07,08,12,31,21.40
2015,07,08,12,32,21.40
2015,07,08,12,33,21.30
2015,07,08,12,34,21.30
2015,07,08,12,35,21.30
2015,07,08,12,36,21.30
2015,07,08,12,37,21.30
2015,07,08,12,38,21.30
2015,07,08,12,39,21.30
2015,07,08,12,40,21.40
2015,07,08,12,41,21.60
2015,07,08,12,42,21.60
2015,07,08,12,43,21.70
2015,07,08,12,44,21.70
2015,07,08,12,45,21.80
2015,07,08,12,46,21.90
2015,07,08,12,47,22.00
2015,07,08,12,48,22.10
2015,07,08,12,49,22.20
2015,07,08,12,50,22.20
2015,07,08,12,51,22.10
2015,07,08,12,52,22.10
2015,07,08,12,53,22.00
2015,07,08,12,54,22.00
2015,07,08,12,55,21.90
2015,07,08,12,56,21.80
2015,07,08,12,57,21.80
2015,07,08,12,58,21.80
2015,07,08,12,59,21.80
2015,07,08,13,00,21.90
2015,07,08,13,01,22.00
2015,07,08,13,02,22.00
2015,07,08,13,03,22.00
2015,07,08,13,04,22.00
2015,07,08,13,05,21.90
2015,07,08,13,06,21.90
2015,07,08,13,07,21.80
2015,07,08,13,08,21.70
2015,07,08,13,09,21.60
2015,07,08,13,10,21.60
2015,07,08,13,11,21.60
2015,07,08,13,12,21.40
2015,07,08,13,13,21.40
2015,07,08,13,14,21.50
2015,07,08,13,15,21.70
2015,07,08,13,16,21.70
2015,07,08,13,17,21.70
2015,07,08,13,18,21.70
2015,07,08,13,19,21.70
2015,07,08,13,20,21.70
2015,07,08,13,21,21.80
2015,07,08,13,22,21.90
2015,07,08,13,23,21.90
2015,07,08,13,24,22.00
2015,07,08,13,25,22.00
2015,07,08,13,26,22.10
2015,07,08,13,27,22.10
2015,07,08,13,28,22.10
2015,07,08,13,29,22.10
2015,07,08,13,30,22.20
2015,07,08,13,31,22.10
2015,07,08,13,32,22.10
2015,07,08,13,33,22.00
2015,07,08,13,34,22.00
2015,07,08,13,35,22.00
2015,07,08,13,36,22.00
2015,07,08,13,37,22.00
2015,07,08,13,38,22.10
2015,07,08,13,39,22.10
2015,07,08,13,40,22.10
2015,07,08,13,41,22.20
2015,07,08,13,42,22.30
2015,07,08,13,43,22.40
2015,07,08,13,44,22.50
2015,07,08,13,45,22.40
2015,07,08,13,46,22.30
2015,07,08,13,47,22.40
2015,07,08,13,48,22.40
2015,07,08,13,49,22.40
2015,07,08,13,50,22.50
2015,07,08,13,51,22.40
2015,07,08,13,52,22.40
2015,07,08,13,53,22.30
2015,07,08,13,54,22.30
2015,07,08,13,55,22.20
2015,07,08,13,56,22.20
2015,07,08,13,57,22.20
2015,07,08,13,58,22.10
2015,07,08,13,59,22.10
2015,07,08,14,00,22.10
2015,07,08,14,01,22.10
2015,07,08,14,02,22.00
2015,07,08,14,03,21.90
2015,07,08,14,04,22.00
2015,07,08,14,05,22.00
2015,07,08,14,06,22.10
2015,07,08,14,07,22.20
2015,07,08,14,08,22.30
2015,07,08,14,09,22.40
2015,07,08,14,10,22.60
2015,07,08,14,11,22.70
2015,07,08,14,12,22.80
2015,07,08,14,13,22.90
2015,07,08,14,14,22.90
2015,07,08,14,15,22.90
2015,07,08,14,16,22.90
2015,07,08,14,17,22.90
2015,07,08,14,18,22.90
2015,07,08,14,19,22.70
2015,07,08,14,20,22.70
2015,07,08,14,21,22.70
2015,07,08,14,22,22.80
2015,07,08,14,23,22.80
2015,07,08,14,24,22.80
2015,07,08,14,25,22.80
2015,07,08,14,26,22.80
2015,07,08,14,27,23.10
2015,07,08,14,28,23.10
2015,07,08,14,29,23.10
2015,07,08,14,30,23.00
2015,07,08,14,31,22.90
2015,07,08,14,32,22.90
2015,07,08,14,33,23.10
2015,07,08,14,34,23.10
2015,07,08,14,35,22.90
2015,07,08,14,36,22.90
2015,07,08,14,37,22.90
2015,07,08,14,38,23.00
2015,07,08,14,39,23.10
2015,07,08,14,40,23.10
2015,07,08,14,41,23.00
2015,07,08,14,42,22.90
2015,07,08,14,43,23.00
2015,07,08,14,44,23.10
2015,07,08,14,45,23.10
2015,07,08,14,46,23.20
2015,07,08,14,47,23.30
2015,07,08,14,48,23.50
2015,07,08,14,49,23.70
2015,07,08,14,50,23.70
2015,07,08,14,51,23.60
2015,07,08,14,52,23.50
2015,07,08,14,53,23.30
2015,07,08,14,54,23.30
2015,07,08,14,55,23.40
2015,07,08,14,56,23.60
2015,07,08,14,57,23.60
2015,07,08,14,58,23.70
2015,07,08,14,59,23.70
2015,07,08,15,00,23.70
2015,07,08,15,01,23.70
2015,07,08,15,02,23.80
2015,07,08,15,03,23.80
2015,07,08,15,04,23.70
2015,07,08,15,05,23.70
2015,07,08,15,06,23.70
2015,07,08,15,07,23.60
2015,07,08,15,08,23.60
2015,07,08,15,09,23.70
2015,07,08,15,10,23.70
2015,07,08,15,11,23.70
2015,07,08,15,12,23.70
2015,07,08,15,13,23.70
2015,07,08,15,14,23.70
2015,07,08,15,15,23.70
2015,07,08,15,16,23.70
2015,07,08,15,17,23.70
2015,07,08,15,18,23.70
2015,07,08,15,19,23.60
2015,07,08,15,20,23.50
2015,07,08,15,21,23.50
2015,07,08,15,22,23.60
2015,07,08,15,23,23.60
2015,07,08,15,24,23.50
2015,07,08,15,25,23.50
2015,07,08,15,26,23.60
2015,07,08,15,27,23.70
2015,07,08,15,28,23.60
2015,07,08,15,29,23.40
2015,07,08,15,30,23.30
2015,07,08,15,31,23.30
2015,07,08,15,32,23.40
2015,07,08,15,33,23.50
2015,07,08,15,34,23.60
2015,07,08,15,35,23.80
2015,07,08,15,36,24.00
2015,07,08,15,37,24.10
2015,07,08,15,38,24.20
2015,07,08,15,39,24.20
2015,07,08,15,40,24.20
2015,07,08,15,41,24.20
2015,07,08,15,42,24.30
2015,07,08,15,43,24.40
2015,07,08,15,44,24.50
2015,07,08,15,45,24.50
2015,07,08,15,46,24.50
2015,07,08,15,47,24.50
2015,07,08,15,48,24.50
2015,07,08,15,49,24.30
2015,07,08,15,50,24.20
2015,07,08,15,51,24.10
2015,07,08,15,52,24.00
2015,07,08,15,53,23.80
2015,07,08,15,54,23.90
2015,07,08,15,55,23.90
2015,07,08,15,56,23.90
2015,07,08,15,57,23.90
2015,07,08,15,58,23.90
2015,07,08,15,59,24.00
2015,07,08,16,00,24.10
2015,07,08,16,01,24.20
2015,07,08,16,02,24.30
2015,07,08,16,03,24.30
2015,07,08,16,04,24.40
2015,07,08,16,05,24.50
2015,07,08,16,06,24.60
2015,07,08,16,07,24.70
2015,07,08,16,08,24.70
2015,07,08,16,09,24.70
2015,07,08,16,10,24.70
2015,07,08,16,11,24.80
2015,07,08,16,12,24.90
2015,07,08,16,13,24.80
2015,07,08,16,14,24.80
2015,07,08,16,15,24.70
2015,07,08,16,16,24.60
2015,07,08,16,17,24.60
2015,07,08,16,18,24.70
2015,07,08,16,19,24.80
2015,07,08,16,20,24.90
2015,07,08,16,21,25.00
2015,07,08,16,22,25.00
2015,07,08,16,23,25.00
2015,07,08,16,24,25.10
2015,07,08,16,25,25.00
2015,07,08,16,26,25.00
2015,07,08,16,27,24.90
2015,07,08,16,28,24.90
2015,07,08,16,29,24.90
2015,07,08,16,30,25.00
2015,07,08,16,31,25.00
2015,07,08,16,32,25.00
2015,07,08,16,33,25.10
2015,07,08,16,34,25.20
2015,07,08,16,35,25.20
2015,07,08,16,36,25.20
2015,07,08,16,37,25.10
2015,07,08,16,38,25.20
2015,07,08,16,39,25.20
2015,07,08,16,40,25.10
2015,07,08,16,41,25.10
2015,07,08,16,42,25.10
2015,07,08,16,43,25.20
2015,07,08,16,44,25.20
2015,07,08,16,45,25.10
2015,07,08,16,46,25.10
2015,07,08,16,47,25.10
2015,07,08,16,48,25.20
2015,07,08,16,49,25.30
2015,07,08,16,50,25.30
2015,07,08,16,51,25.40
2015,07,08,16,52,25.40
2015,07,08,16,53,25.40
2015,07,08,16,54,25.40
2015,07,08,16,55,25.40
2015,07,08,16,56,25.40
2015,07,08,16,57,25.40
2015,07,08,16,58,25.30
2015,07,08,16,59,25.10
2015,07,08,17,00,25.10
2015,07,08,17,01,25.00
2015,07,08,17,02,25.00
2015,07,08,17,03,25.00
2015,07,08,17,04,25.00
2015,07,08,17,05,24.90
2015,07,08,17,06,24.80
2015,07,08,17,07,24.80
2015,07,08,17,08,24.80
2015,07,08,17,09,24.80
2015,07,08,17,10,24.90
2015,07,08,17,11,25.00
2015,07,08,17,12,25.00
2015,07,08,17,13,25.00
2015,07,08,17,14,25.00
2015,07,08,17,15,25.10
2015,07,08,17,16,25.10
2015,07,08,17,17,25.20
2015,07,08,17,18,25.20
2015,07,08,17,19,25.10